Simultaneous Nadir Overpasses (SNOs) Predictions

Prediction of SNOs between GOES-17 and METOP-A Satellite Orbit:

Table of predicted SNOs for the next 14.0 days since TLE Epoch: 7/12/2019
Index Date Time (GOES-17) GOES-17 Lat,Lon METOP-A Lat,Lon Distance(km) Time Diff (sec)
1 07/13/2019 18:20:04 -0.01,-137.20 0.50,-139.38 249.01 80
2 07/14/2019 18:02:06 -0.01,-137.20 -0.64,-134.41 318.44 80
3 07/16/2019 06:21:07 0.01,-137.18 -0.38,-139.03 210.22 80
4 07/17/2019 05:57:48 0.02,-137.18 0.70,-134.04 356.64 80
5 07/18/2019 18:16:40 -0.02,-137.18 0.31,-138.63 165.75 80
6 07/19/2019 17:58:42 -0.03,-137.17 -0.83,-133.66 401.14 80
7 07/21/2019 06:17:43 0.03,-137.15 -0.19,-138.28 128.02 80
8 07/22/2019 05:54:23 0.04,-137.14 0.89,-133.29 438.42 80
9 07/23/2019 18:13:16 -0.04,-137.13 0.12,-137.88 84.85 80
10 07/24/2019 17:55:16 -0.04,-137.12 -0.96,-132.89 481.48 80
11 07/26/2019 06:14:18 0.04,-137.09 -0.06,-137.52 48.43 80




NCC Satellite Simultaneous Nadir Overpasses (SNOs) Prediction Service
